Regional Weather Roundup
Issued by NWS

Home | Current Version | Previous Version | Graphics & Text | Print | Product List | Glossary On
Versions: 1 2 3 4 5 6 7 8 9 10 11 12 13 14 15 16 17 18 19 20 21 22 23 24 25 26 27 28 29 30 31 32 33 34 35 36 37 38 39 40 41 42 43 44 45 46 47 48 49 50
263
ASUS44 KLIX 292011
RWRLA
LOUISIANA WEATHER ROUNDUP
NATIONAL WEATHER SERVICE NEW ORLEANS LA
300 PM CDT SUN MAR 29 2015

NOTE: "FAIR" INDICATES FEW OR NO CLOUDS BELOW 12,000 FEET WITH NO
      SIGNIFICANT WEATHER AND/OR OBSTRUCTIONS TO VISIBILITY.
      SKY/WX - SKY CONDITION AND SIGNIFICANT WEATHER.
      TMP - AIR TEMPERATURE.    DP   - DEWPOINT TEMPERATURE.
      RH  - RELATIVE HUMIDITY.  PRES - PRESSURE.
      HX  - HEAT INDEX.         WCI  - WIND CHILL INDEX.

*  THESE STATIONS ARE NOT NWS OR FAA STATIONS AND ARE NOT UNDER
   NWS QUALITY CONTROL.

LAZ040-048-061>063-065-066-069-292100-
SOUTHEAST LOUISIANA

CITY           SKY/WX    TMP DP  RH WIND       PRES   REMARKS
N.O. AUDUBON     N/A     76  64  65 MISG        N/A
N.O. INTL ARPT MOSUNNY   76  61  59 S12       30.22F
N.O. LAKEFRONT PTSUNNY   78  60  53 SE15      30.23F
SLIDELL        MOSUNNY   73  59  61 SE14      30.23F
BATON ROUGE    PTSUNNY   78  58  49 S14G23    30.18F
BOOTHVILLE     SUNNY     73  61  65 S15G23    30.26F
BELLE CHASSE   PTSUNNY   73  59  61 S12       30.23F
BOGALUSA*        N/A     78  55  45 S12G17    30.23F
GALLIANO*      MOCLDY    77  62  59 S8G17     30.24F
NEW ROADS*     MOCLDY    79  58  48 S17       30.18F
GONZALES*      FAIR      79  58  48 S10       30.19F
HAMMOND*       MOSUNNY   77  57  50 S12G18    30.23F
HOUMA*         MOSUNNY   77  63  61 S12       30.23F
PORT FOURCHON* CLEAR     73  64  73 SE14      30.27F

$$

LAZ041-044-053-054-292100-
SOUTHWEST LOUISIANA

CITY           SKY/WX    TMP DP  RH WIND       PRES   REMARKS
LAKE CHARLES   MOSUNNY   77  61  57 S18G24    30.18F
LAFAYETTE      MOSUNNY   78  61  55 S14G24    30.18F
PATTERSON      PTSUNNY   75  59  57 S15       30.23F
SALT POINT       N/A     74  65  73 VRB7      30.21F
NEW IBERIA     PTSUNNY   78  60  53 S22       30.21F
CHENAULT AIRPK NOT AVBL

$$

LAZ027-028-292100-
CENTRAL LOUISIANA

CITY           SKY/WX    TMP DP  RH WIND       PRES   REMARKS
FORT POLK      MOSUNNY   79  59  50 S15G25    30.11F
ALEXANDRIA INT MOSUNNY   81  57  43 S18       30.11F
ALEXANDRIA     MOSUNNY   80  57  45 S14G25    30.13F

$$

LAZ001-002-292100-
NORTHWEST LOUISIANA

CITY           SKY/WX    TMP DP  RH WIND       PRES   REMARKS
SHREVEPORT     SUNNY     83  56  39 S13G23    30.04F
BARKSDALE AFB  SUNNY     82  55  40 S16G25    30.04F
DTN SHREVEPORT SUNNY     79  55  43 S15G24    30.04F

$$

LAZ014-016-292100-
NORTHEAST LOUISIANA

CITY           SKY/WX    TMP DP  RH WIND       PRES   REMARKS
MONROE         SUNNY     78  59  51 SW15G24   30.10F
TALLULAH       SUNNY     79  52  38 SW14G23   30.13F

$$




USA.gov is the U.S. government's official web portal to all federal, state and local government web resources and services.